Terminal Aerodrome Forecast
Issued by NWS Portland, OR

Current Version | Previous Version | Text Only | Print | Product List | Glossary On
Versions: 1 2 3 4 5 6 7 8 9 10 11 12 13 14 15 16 17 18 19 20 21 22 23 24 25 26 27 28 29 30 31 32 33 34 35 36 37 38 39 40 41 42 43 44 45 46 47 48 49 50
000
FTUS46 KPQR 302320
TAFEUG
TAF
KEUG 302320Z 0100/0124 33006KT P6SM FEW035 SCT070 BKN090
     FM010500 32004KT P6SM SKC
     FM011200 VRB03KT 2SM BR BKN004 OVC012
     FM011900 36008KT P6SM SCT250=

USA.gov is the U.S. government's official web portal to all federal, state and local government web resources and services.